Morris, IL

4:49 AM CST on February 25, 2017 (GMT -0600)
Morris

Weather History for KC09 - February, 2013

Change the Weather History Date:

Friday, February 22, 2013

  Actual Average (KARR) Record (KARR)
Temperature  
Mean Temperature 30 °F -  
Max Temperature 34 °F 35 °F 68 °F (2017)
Min Temperature 25 °F 21 °F -3 °F (2015)
Degree Days  
Heating Degree Days 36    
Moisture  
Dew Point 28 °F    
Average Humidity 92    
Maximum Humidity 100    
Minimum Humidity 76    
Precipitation  
Precipitation 0.06 in - - ()
Sea Level Pressure  
Sea Level Pressure 29.86 in    
Wind  
Wind Speed 13 mph (SSW)    
Max Wind Speed 23 mph    
Max Gust Speed 29 mph    
Visibility 6 miles    
Events Fog , Rain , Snow , Thunderstorm    
Averages and records for this station are not official NWS values.
T = Trace of Precipitation, MM = Missing Value Source: NWS Daily Summary

Daily Weather History Graph

Daily Weather History Graph

Search for Another Location

Airport or City:

Trip Planner

Search our weather history database for the weather conditions in past years. The results will help you decide how hot, cold, wet, or windy it might be!

Date:

Astronomy

Feb. 22, 2013 Rise Set
Actual Time 6:38 AM CST 5:36 PM CST
Civil Twilight 6:10 AM CST 6:04 PM CST
Nautical Twilight 5:38 AM CST 6:36 PM CST
Astronomical Twilight 5:06 AM CST 7:08 PM CST
Moon 2:46 PM CST (2/22) 4:24 AM CST (2/22)
Length of Visible Light 11h 53m
Length of Day
10h 57m
Waxing Gibbous, 90% of the Moon is Illuminated
Feb 22
Waxing Gibbous
Feb 25
Full
Mar 4
Last Quarter
Mar 11
New
Mar 19
First Quarter

Hourly Weather History & Observations

Time (CST) Temp. Windchill Dew Point Humidity Pressure Visibility Wind Dir Wind Speed Gust Speed Precip Events Conditions
12:15 AM 26.4 °F 14.0 °F 26.4 °F 100% 29.93 in 1.5 mi East 16.1 mph - 0.01 in Snow Light Snow
12:35 AM 26.4 °F 15.0 °F 26.4 °F 100% 29.93 in 1.8 mi East 13.8 mph 20.7 mph 0.02 in Snow Light Snow
12:55 AM 26.4 °F 13.6 °F 26.4 °F 100% 29.91 in 1.2 mi East 17.3 mph 25.3 mph 0.03 in Snow Light Snow
1:15 AM 26.4 °F 13.6 °F 26.2 °F 99% 29.90 in 1.5 mi East 17.3 mph 24.2 mph 0.01 in Snow Light Snow
1:35 AM 26.4 °F 13.2 °F 26.1 °F 99% 29.90 in 1.5 mi East 18.4 mph 23.0 mph 0.01 in Snow Light Snow
1:55 AM 26.4 °F 13.2 °F 26.1 °F 99% 29.89 in 1.8 mi East 18.4 mph 24.2 mph 0.02 in Snow Light Snow
2:15 AM 26.1 °F 14.5 °F 26.1 °F 100% 29.88 in 1.5 mi East 13.8 mph 20.7 mph N/A Snow , Thunderstorm Light Thunderstorms and Snow
2:35 AM 25.9 °F 14.3 °F 25.9 °F 100% 29.88 in 1.5 mi East 13.8 mph - N/A Snow Light Snow
2:55 AM 26.1 °F 15.6 °F 26.1 °F 100% 29.87 in 2.5 mi East 11.5 mph - 0.01 in Snow Light Snow
3:15 AM 26.1 °F 14.5 °F 26.1 °F 100% 29.86 in 2.0 mi East 13.8 mph - N/A Snow Light Snow
3:35 AM 26.1 °F 16.2 °F 26.1 °F 100% 29.86 in 1.2 mi East 10.4 mph 18.4 mph N/A Snow Light Snow
3:55 AM 25.7 °F 17.1 °F 25.7 °F 100% 29.85 in 1.2 mi East 8.1 mph - N/A Snow Light Snow
4:15 AM 25.7 °F 16.4 °F 25.7 °F 100% 29.84 in 1.2 mi ENE 9.2 mph - N/A Snow Light Snow
4:35 AM 25.7 °F 15.7 °F 25.7 °F 100% 29.84 in 2.0 mi East 10.4 mph - N/A Snow Light Snow
4:55 AM 25.7 °F 15.1 °F 25.7 °F 100% 29.84 in 2.0 mi East 11.5 mph - N/A Snow Light Snow
5:15 AM 26.4 °F 16.6 °F 26.4 °F 100% 29.84 in 3.0 mi East 10.4 mph 16.1 mph N/A Snow Light Snow
5:35 AM 26.6 °F 15.2 °F 26.4 °F 99% 29.82 in 4.0 mi East 13.8 mph - N/A Snow Light Snow
5:55 AM 26.6 °F 17.5 °F 26.4 °F 99% 29.82 in 10.0 mi East 9.2 mph - N/A Snow Light Snow
6:15 AM 27.0 °F 18.0 °F 26.6 °F 99% 29.82 in 10.0 mi East 9.2 mph - N/A   Overcast
6:35 AM 26.6 °F 17.5 °F 26.6 °F 100% 29.81 in 10.0 mi East 9.2 mph - N/A   Overcast
6:55 AM 27.5 °F 18.6 °F 27.1 °F 99% 29.81 in 7.0 mi East 9.2 mph - N/A   Overcast
7:15 AM 27.5 °F 17.4 °F 27.5 °F 100% 29.80 in 7.0 mi East 11.5 mph - N/A   Overcast
7:35 AM 28.0 °F 19.3 °F 27.9 °F 99% 29.81 in 7.0 mi ESE 9.2 mph - N/A   Overcast
7:55 AM 28.4 °F 19.7 °F 28.4 °F 100% 29.80 in 5.0 mi ESE 9.2 mph - N/A   Overcast
8:15 AM 28.9 °F 20.4 °F 28.9 °F 100% 29.80 in 5.0 mi ESE 9.2 mph - N/A   Overcast
8:35 AM 29.3 °F 20.8 °F 29.3 °F 100% 29.81 in 4.0 mi SE 9.2 mph - N/A   Overcast
8:55 AM 29.8 °F 23.0 °F 29.8 °F 100% 29.81 in 4.0 mi SE 6.9 mph - N/A   Overcast
9:15 AM 30.0 °F 23.2 °F 30.0 °F 100% 29.81 in 4.0 mi SE 6.9 mph - N/A   Overcast
9:35 AM 31.1 °F 25.4 °F 31.1 °F 100% 29.81 in 1.8 mi SSE 5.8 mph - N/A   Overcast
9:55 AM 32.0 °F 24.2 °F 32.0 °F 100% 29.81 in 0.8 mi SSE 9.2 mph - N/A   Light Drizzle
10:15 AM 32.0 °F 24.8 °F 32.0 °F 100% 29.81 in 0.8 mi South 8.1 mph - N/A   Overcast
10:35 AM 32.2 °F 25.8 °F 32.2 °F 100% 29.82 in 0.5 mi South 6.9 mph - N/A Fog Fog
10:55 AM 32.9 °F 25.9 °F 32.9 °F 100% 29.83 in 0.5 mi South 8.1 mph - N/A Rain Light Rain
11:15 AM 33.6 °F 26.2 °F 33.6 °F 100% 29.83 in 0.8 mi SW 9.2 mph - N/A Snow Light Snow
11:35 AM 34.0 °F 26.6 °F 34.0 °F 100% 29.82 in 2.0 mi SW 9.2 mph - N/A Rain Light Rain
11:55 AM 34.2 °F 26.2 °F 34.2 °F 100% 29.82 in 5.0 mi SW 10.4 mph 17.3 mph N/A Rain Light Rain
12:15 PM 34.3 °F 25.9 °F 34.3 °F 100% 29.81 in 5.0 mi SW 11.5 mph - N/A Rain Light Rain
12:35 PM 34.9 °F 26.6 °F 34.9 °F 100% 29.81 in 10.0 mi WSW 11.5 mph - N/A   Overcast
12:55 PM 34.9 °F 25.7 °F 34.0 °F 97% 29.81 in 10.0 mi WSW 13.8 mph - N/A   Overcast
1:15 PM 34.5 °F 24.8 °F 33.4 °F 96% 29.81 in 10.0 mi WSW 15.0 mph 21.9 mph N/A   Overcast
1:35 PM 34.3 °F 24.2 °F 33.1 °F 95% 29.81 in 10.0 mi WSW 16.1 mph 20.7 mph N/A   Overcast
1:55 PM 34.2 °F 24.0 °F 32.5 °F 94% 29.81 in 10.0 mi WSW 16.1 mph 21.9 mph N/A   Overcast
2:15 PM 34.7 °F 25.1 °F 32.0 °F 90% 29.82 in 10.0 mi WSW 15.0 mph - N/A   Overcast
2:35 PM 34.3 °F 23.2 °F 29.8 °F 84% 29.83 in 10.0 mi WSW 19.6 mph - N/A   Overcast
2:55 PM 33.8 °F 21.6 °F 27.1 °F 77% 29.84 in 10.0 mi WSW 23.0 mph 28.8 mph N/A   Overcast
3:15 PM 32.9 °F 20.4 °F 26.2 °F 76% 29.85 in 10.0 mi West 23.0 mph 27.6 mph N/A   Overcast
3:35 PM 32.2 °F 21.4 °F 26.2 °F 79% 29.86 in 10.0 mi West 16.1 mph - N/A   Overcast
3:55 PM 32.0 °F 21.6 °F 26.1 °F 79% 29.86 in 10.0 mi WSW 15.0 mph - N/A   Overcast
4:15 PM 32.0 °F 20.5 °F 25.5 °F 77% 29.86 in 10.0 mi WSW 18.4 mph - N/A   Overcast
4:35 PM 31.8 °F 21.4 °F 25.5 °F 78% 29.87 in 10.0 mi WSW 15.0 mph - N/A   Overcast
4:55 PM 31.8 °F 21.8 °F 25.5 °F 78% 29.88 in 10.0 mi WSW 13.8 mph - N/A   Overcast
5:15 PM 31.5 °F 21.4 °F 25.5 °F 79% 29.88 in 10.0 mi WSW 13.8 mph - N/A   Overcast
5:35 PM 31.3 °F 21.6 °F 25.7 °F 80% 29.89 in 10.0 mi WSW 12.7 mph 18.4 mph N/A   Overcast
5:55 PM 31.1 °F 20.5 °F 25.5 °F 80% 29.89 in 10.0 mi WSW 15.0 mph 19.6 mph N/A   Overcast
6:15 PM 31.1 °F 20.5 °F 25.5 °F 80% 29.90 in 10.0 mi WSW 15.0 mph - N/A   Overcast
6:35 PM 30.9 °F 20.2 °F 25.5 °F 80% 29.90 in 10.0 mi WSW 15.0 mph - N/A   Overcast
6:55 PM 30.6 °F 19.4 °F 25.3 °F 81% 29.91 in 10.0 mi WSW 16.1 mph - N/A   Overcast
7:15 PM 30.4 °F 19.1 °F 25.2 °F 81% 29.91 in 10.0 mi SW 16.1 mph 20.7 mph N/A   Overcast
7:35 PM 30.2 °F 19.3 °F 24.8 °F 80% 29.91 in 10.0 mi WSW 15.0 mph - N/A   Overcast
7:55 PM 30.0 °F 19.1 °F 25.2 °F 82% 29.92 in 10.0 mi WSW 15.0 mph - N/A   Overcast
8:15 PM 30.0 °F 20.5 °F 24.8 °F 81% 29.92 in 10.0 mi WSW 11.5 mph - N/A   Overcast
8:35 PM 29.7 °F 18.2 °F 25.2 °F 83% 29.93 in 10.0 mi WSW 16.1 mph - N/A Snow Light Snow
8:55 PM 29.3 °F 19.1 °F 24.8 °F 83% 29.92 in 10.0 mi WSW 12.7 mph - N/A Snow Light Snow
9:15 PM 29.3 °F 18.2 °F 24.8 °F 83% 29.93 in 7.0 mi WSW 15.0 mph 19.6 mph N/A Snow Light Snow
9:35 PM 29.1 °F 18.4 °F 24.8 °F 84% 29.93 in 7.0 mi WSW 13.8 mph - N/A Snow Light Snow
9:55 PM 28.9 °F 17.7 °F 24.6 °F 84% 29.93 in 10.0 mi WSW 15.0 mph - N/A Snow Light Snow
10:15 PM 28.9 °F 17.7 °F 24.4 °F 83% 29.92 in 10.0 mi WSW 15.0 mph - N/A Snow Light Snow
10:35 PM 28.6 °F 17.2 °F 24.1 °F 83% 29.93 in 10.0 mi WSW 15.0 mph - N/A Snow Light Snow
10:55 PM 28.4 °F 17.0 °F 23.9 °F 83% 29.93 in 10.0 mi WSW 15.0 mph - N/A   Overcast
11:15 PM 28.4 °F 17.5 °F 23.9 °F 83% 29.93 in 10.0 mi WSW 13.8 mph - N/A   Overcast
11:35 PM 28.0 °F 18.1 °F 23.7 °F 84% 29.93 in 10.0 mi WSW 11.5 mph - N/A   Overcast
11:55 PM 26.8 °F 17.1 °F 22.8 °F 85% 29.93 in 10.0 mi WSW 10.4 mph - N/A   Mostly Cloudy